Petersburg, WV

8:02 AM EDT on May 28, 2017 (GMT -0400)
Petersburg

Weather History for KW99 - November, 2012

Change the Weather History Date:

Wednesday, November 21, 2012

  Actual Average (KEKN) Record (KEKN)
Temperature  
Mean Temperature 44 °F -  
Max Temperature 59 °F 46 °F 78 °F (1906)
Min Temperature 27 °F 28 °F 3 °F (1951)
Degree Days  
Heating Degree Days 22    
Moisture  
Dew Point 31 °F    
Average Humidity 78    
Maximum Humidity 95    
Minimum Humidity 32    
Precipitation  
Precipitation 0.00 in - - ()
Sea Level Pressure  
Sea Level Pressure 30.21 in    
Wind  
Wind Speed 0 mph (North)    
Max Wind Speed 0 mph    
Max Gust Speed -    
Visibility 6 miles    
Events Fog    
Averages and records for this station are not official NWS values.
T = Trace of Precipitation, MM = Missing Value Source: NWS Daily Summary

Daily Weather History Graph

Daily Weather History Graph

Search for Another Location

Airport or City:

Trip Planner

Search our weather history database for the weather conditions in past years. The results will help you decide how hot, cold, wet, or windy it might be!

Date:

Astronomy

Nov. 21, 2012 Rise Set
Actual Time 7:06 AM EST 4:58 PM EST
Civil Twilight 6:37 AM EST 5:27 PM EST
Nautical Twilight 6:04 AM EST 5:59 PM EST
Astronomical Twilight 5:33 AM EST 6:31 PM EST
Moon 1:11 PM EST (11/21) 12:26 AM EST (11/21)
Length of Visible Light 10h 49m
Length of Day
9h 51m
First Quarter, 61% of the Moon is Illuminated
Nov 21
First Quarter
Nov 28
Full
Dec 6
Last Quarter
Dec 13
New
Dec 20
First Quarter

Hourly Weather History & Observations

Time (EST) Temp. Dew Point Humidity Pressure Visibility Wind Dir Wind Speed Gust Speed Precip Events Conditions
12:15 AM 36.0 °F 33.6 °F 91% 30.17 in 7.0 mi Calm Calm - N/A   Mostly Cloudy
12:35 AM 34.9 °F 32.5 °F 91% 30.16 in 5.0 mi Calm Calm - N/A   Scattered Clouds
12:55 AM 34.3 °F 32.2 °F 92% 30.16 in 4.0 mi Calm Calm - N/A   Clear
1:15 AM 34.0 °F 32.0 °F 92% 30.17 in 0.8 mi Calm Calm - N/A   Mist
1:35 AM 32.2 °F 30.7 °F 94% 30.16 in 0.5 mi Calm Calm - N/A Fog Fog
1:55 AM 32.9 °F 31.5 °F 94% 30.16 in 0.5 mi Calm Calm - N/A Fog Fog
2:15 AM 31.6 °F 30.0 °F 94% 30.17 in 0.5 mi Calm Calm - N/A Fog Fog
2:35 AM 30.9 °F 29.1 °F 93% 30.17 in 0.2 mi Calm Calm - N/A Fog Light Freezing Fog
2:55 AM 30.2 °F 28.8 °F 94% 30.17 in 0.8 mi Calm Calm - N/A   Overcast
3:15 AM 31.5 °F 30.0 °F 94% 30.18 in 0.2 mi Calm Calm - N/A Fog Light Freezing Fog
3:35 AM 30.7 °F 29.3 °F 94% 30.17 in 0.2 mi Calm Calm - N/A Fog Light Freezing Fog
3:55 AM 30.9 °F 29.5 °F 94% 30.18 in 0.2 mi Calm Calm - N/A Fog Light Freezing Fog
4:15 AM 30.7 °F 29.3 °F 94% 30.18 in 0.2 mi Calm Calm - N/A Fog Light Freezing Fog
4:35 AM 30.4 °F 28.9 °F 94% 30.18 in 0.2 mi Calm Calm - N/A Fog Light Freezing Fog
4:55 AM 30.6 °F 29.1 °F 94% 30.19 in 0.2 mi Calm Calm - N/A Fog Light Freezing Fog
5:15 AM 30.2 °F 28.8 °F 94% 30.19 in 0.2 mi Calm Calm - N/A Fog Light Freezing Fog
5:35 AM 30.2 °F 28.8 °F 94% 30.19 in 0.2 mi Calm Calm - N/A Fog Light Freezing Fog
5:55 AM 30.2 °F 28.9 °F 95% 30.20 in 0.2 mi Calm Calm - N/A Fog Light Freezing Fog
6:15 AM 30.0 °F 28.6 °F 94% 30.21 in 0.2 mi Calm Calm - N/A Fog Light Freezing Fog
6:35 AM 29.1 °F 27.5 °F 94% 30.21 in 0.5 mi Calm Calm - N/A Fog Light Freezing Fog
6:55 AM 29.3 °F 27.9 °F 94% 30.22 in 0.2 mi Calm Calm - N/A Fog Light Freezing Fog
7:15 AM 28.8 °F 27.1 °F 94% 30.22 in 0.2 mi Calm Calm - N/A Fog Light Freezing Fog
7:35 AM 28.8 °F 27.3 °F 94% 30.23 in 0.2 mi Calm Calm - N/A Fog Light Freezing Fog
7:55 AM 28.6 °F 27.1 °F 94% 30.24 in 0.2 mi Calm Calm - N/A Fog Light Freezing Fog
8:15 AM 28.6 °F 27.1 °F 94% 30.24 in 0.2 mi Calm Calm - N/A Fog Light Freezing Fog
8:35 AM 29.1 °F 27.7 °F 94% 30.25 in 0.2 mi Calm Calm - N/A Fog Light Freezing Fog
8:55 AM 30.2 °F 28.8 °F 94% 30.25 in 0.2 mi Calm Calm - N/A Fog Light Freezing Fog
9:15 AM 31.8 °F 30.2 °F 94% 30.25 in 1.0 mi Calm Calm - N/A   Overcast
9:35 AM 33.8 °F 32.4 °F 94% 30.25 in 5.0 mi Calm Calm - N/A   Scattered Clouds
9:55 AM 35.2 °F 33.8 °F 94% 30.25 in 7.0 mi Calm Calm - N/A   Clear
10:15 AM 38.7 °F 36.9 °F 93% 30.25 in 10.0 mi Calm Calm - N/A   Clear
10:35 AM 41.2 °F 39.4 °F 93% 30.24 in 10.0 mi Calm Calm - N/A   Clear
10:55 AM 42.1 °F 40.1 °F 93% 30.24 in 10.0 mi Calm Calm - N/A   Clear
11:15 AM 45.5 °F 41.7 °F 87% 30.23 in 10.0 mi Calm Calm - N/A   Clear
11:35 AM 47.8 °F 37.9 °F 69% 30.22 in 10.0 mi Calm Calm - N/A   Clear
11:55 AM 51.3 °F 36.3 °F 57% 30.21 in 10.0 mi Calm Calm - N/A   Clear
12:15 PM 52.9 °F 35.8 °F 52% 30.20 in 10.0 mi Calm Calm - N/A   Clear
12:35 PM 54.1 °F 34.0 °F 47% 30.20 in 10.0 mi Calm Calm - N/A   Clear
12:55 PM 54.9 °F 32.4 °F 42% 30.20 in 10.0 mi Calm Calm - N/A   Clear
1:15 PM 55.4 °F 32.5 °F 42% 30.19 in 10.0 mi Calm Calm - N/A   Clear
1:35 PM 57.4 °F 32.9 °F 40% 30.19 in 10.0 mi Calm Calm - N/A   Clear
1:55 PM 57.9 °F 33.3 °F 39% 30.19 in 10.0 mi Calm Calm - N/A   Clear
2:15 PM 57.9 °F 32.9 °F 39% 30.19 in 10.0 mi Calm Calm - N/A   Clear
2:35 PM 58.6 °F 32.4 °F 37% 30.18 in 10.0 mi Calm Calm - N/A   Clear
2:55 PM 59.0 °F 31.8 °F 36% 30.18 in 10.0 mi Calm Calm - N/A   Clear
3:15 PM 59.0 °F 32.4 °F 37% 30.18 in 10.0 mi Calm Calm - N/A   Clear
3:35 PM 58.8 °F 31.8 °F 36% 30.18 in 10.0 mi Calm Calm - N/A   Clear
3:55 PM 57.7 °F 29.8 °F 35% 30.18 in 10.0 mi Calm Calm - N/A   Clear
4:15 PM 57.2 °F 27.5 °F 32% 30.18 in 10.0 mi Calm Calm - N/A   Clear
4:35 PM 55.8 °F 27.5 °F 34% 30.18 in 10.0 mi Calm Calm - N/A   Clear
5:15 PM 46.8 °F 32.2 °F 57% 30.20 in 10.0 mi Calm Calm - N/A   Clear
5:35 PM 44.4 °F 32.4 °F 63% 30.20 in 10.0 mi Calm Calm - N/A   Clear
5:55 PM 40.6 °F 32.2 °F 72% 30.21 in 10.0 mi Calm Calm - N/A   Clear
6:15 PM 40.1 °F 31.8 °F 72% 30.22 in 10.0 mi Calm Calm - N/A   Clear
6:35 PM 39.2 °F 30.9 °F 72% 30.23 in 10.0 mi Calm Calm - N/A   Clear
6:55 PM 39.2 °F 30.7 °F 72% 30.23 in 10.0 mi Calm Calm - N/A   Clear
7:15 PM 37.8 °F 30.2 °F 74% 30.24 in 10.0 mi Calm Calm - N/A   Clear
7:35 PM 38.3 °F 31.6 °F 77% 30.24 in 10.0 mi Calm Calm - N/A   Clear
7:55 PM 36.7 °F 31.1 °F 80% 30.25 in 10.0 mi Calm Calm - N/A   Clear
8:15 PM 36.0 °F 30.6 °F 81% 30.25 in 10.0 mi Calm Calm - N/A   Clear
8:35 PM 35.6 °F 30.2 °F 81% 30.25 in 10.0 mi Calm Calm - N/A   Clear
8:55 PM 33.8 °F 29.3 °F 84% 30.25 in 10.0 mi Calm Calm - N/A   Clear
9:15 PM 33.8 °F 29.8 °F 85% 30.25 in 10.0 mi Calm Calm - N/A   Clear
9:35 PM 33.4 °F 29.1 °F 84% 30.26 in 10.0 mi Calm Calm - N/A   Clear
9:55 PM 32.7 °F 29.1 °F 87% 30.26 in 10.0 mi Calm Calm - N/A   Clear
10:15 PM 33.6 °F 30.4 °F 88% 30.26 in 10.0 mi Calm Calm - N/A   Clear
10:35 PM 31.8 °F 28.6 °F 88% 30.26 in 10.0 mi Calm Calm - N/A   Clear
10:55 PM 30.6 °F 27.1 °F 87% 30.26 in 10.0 mi Calm Calm - N/A   Clear
11:15 PM 30.2 °F 27.0 °F 88% 30.26 in 7.0 mi Calm Calm - N/A   Clear
11:35 PM 29.1 °F 26.1 °F 88% 30.26 in 10.0 mi Calm Calm - N/A   Clear
11:55 PM 27.7 °F 24.6 °F 88% 30.26 in 10.0 mi Calm Calm - N/A   Clear